Regional Weather Roundup
Issued by NWS Charleston, SC

Current Version | Previous Version | Graphics & Text | Print | Product List | Glossary On
Versions: 1 2 3 4 5 6 7 8 9 10 11 12 13 14 15 16 17 18 19 20 21 22 23 24 25 26 27 28 29 30 31 32 33 34 35 36 37 38 39 40 41 42 43 44 45 46 47 48 49 50
000
ASUS42 KCHS 291427
RWRCHS

REGIONAL WEATHER ROUNDUP
NATIONAL WEATHER SERVICE CHARLESTON SC
1000 AM EDT SAT APR 29 2017

NOTE: "FAIR" INDICATES FEW OR NO CLOUDS BELOW 12,000 FEET WITH NO
SIGNIFICANT WEATHER AND/OR OBSTRUCTIONS TO VISIBILITY.

NOT ALL STATIONS ARE QUALITY CONTROLLED. USE DATA WITH CAUTION...
ESPECIALLY DEWPOINT OBSERVATIONS.

SCZ027-030-031-034>040-042>050-291500-
...SOUTHEAST SOUTH CAROLINA...

CITY           SKY/WX    TMP DP  RH WIND       PRES   REMARKS
N CHARLESTON   MOSUNNY   81  70  69 S13G20    30.24R
WATERFRONT PRK   N/A     76  74  93 S7        30.21S
JOHNS ISLAND   CLOUDY    81  73  78 S10       30.24S
PINOPOLIS        N/A     81  73  78 S5        30.16R
MONCKS CORNER  FAIR      81  70  69 SW9G18    30.23S
SUMMERVILLE    FAIR      81  70  69 S7        30.24R
BEAUFORT MCAS  MOSUNNY   80  72  76 S13G18    30.23R
BEAUFORT ARPT  PTSUNNY   77  72  83 S7        30.23S HAZE
HILTON HEAD IS MOSUNNY   79  73  83 S10       30.24R
WALTERBORO     SUNNY     79  70  73 S13       30.23S
ALLENDALE      PTSUNNY   81  70  69 S8        30.20F

...SOUTHERN MIDLANDS AND PEE DEE...

CITY           SKY/WX    TMP DP  RH WIND       PRES   REMARKS
GEORGETOWN     PTSUNNY   81  72  74 S10G20    30.25R
KINGSTREE      PTSUNNY   79  68  69 S7        30.22F
ORANGEBURG     PTSUNNY   78  70  76 S12       30.22S
BARNWELL       CLOUDY    81  73  78 S6        30.21S
AIKEN          CLOUDY    73  70  88 S9        30.24S
MANNING        FAIR      77  70  78 SW18      30.22F
COLUMBIA       PTSUNNY   79  69  71 S10       30.20S
SUMTER         PTSUNNY   78  69  73 S13       30.20S
FLORENCE       MOSUNNY   80  71  74 S12       30.22S
MYRTLE BEACH   MOSUNNY   79  73  83 S8        30.24S
N MYRTLE BEACH MOSUNNY   78  74  87 S9        30.24S

$$

GAZ063-065-086>088-099>101-113>116-118-119-134>141-150-291500-
...SOUTHEAST GEORGIA...

CITY           SKY/WX    TMP DP  RH WIND       PRES   REMARKS
SAVANNAH ARPT  PTSUNNY   84  68  58 S15       30.21S
HUNTER AAF     MOSUNNY   81  78  89 S3        30.20R
FORT STEWART   MOSUNNY   81  70  69 SE7       30.19R
STATESBORO     PTSUNNY   83  69  64 S12       30.20F
SYLVANIA       MOSUNNY  N/A N/A N/A S6        30.22S
CLAXTON        FAIR      81  76  87 SE7       30.20S

...CSRA...CENTRAL AND FAR SOUTHEAST GEORGIA...

CITY           SKY/WX    TMP DP  RH WIND       PRES   REMARKS
THOMSON        CLOUDY    76  70  81 SW6       30.24S
AUGUSTA-BUSH   CLOUDY    80  72  76 S12       30.18F
AUGUSTA-DANIEL CLOUDY    76  69  79 S9        30.20F
SWAINSBORO     CLOUDY    79  72  78 SE9       30.20S
VIDALIA        CLOUDY    81  72  74 S10       30.20R
EASTMAN        CLOUDY    80  63  56 S8        30.20S
HAZLEHURST     FAIR      82  73  76 S6        30.17F
ALMA           MOSUNNY   80  71  74 S9        30.18R
WAYCROSS       MOSUNNY   84  76  76 S10       30.19R HX  92
JESUP          PTSUNNY   81  68  65 S6        30.21R
BAXLEY         PTSUNNY   82  77  83 S8        30.19R HX  91
BRUNSWICK      PTSUNNY   81  73  78 SE12      30.21S
SAINT SIMONS   PTSUNNY   80  72  76 SE10      30.21R

$$

SCZ027-028-034-036>038-045-046-048>050-GAZ119-141-291500-
...LAKE AND SUPPLEMENTAL COASTAL OBSERVATIONS...

STATION/POSITION TIME  TEMP    WIND        PRES    WAVE   SWELL
                       AIR SEA DIR/SP/G            HT/PER HT/PER/DIR
                 (UTC) (F)     (DEG/KT/KT) (MB)    (FT/S) (FT/S/D)
WINYAH BAY       1330   78     200/  8     1024.0S
LAKE MURRAY      1350   75     170/  8/  9 1022.0F
ACE BASIN NERRS  1330   78     180/  1     1024.0R
FORT PULASKI     1400   79 76  180/  6/ 11 1023.8
SAPELO ISLAND    1345   78     160/  8     1023.0R

$$

ANZ835-935-AMZ111-154-330-350-352-354-370-450-454-472-291500-
...C-MAN AND BUOY OBSERVATIONS...

STATION/POSITION TIME  TEMP    WIND        PRES    WAVE   SWELL
                       AIR SEA DIR/SP/G            HT/PER HT/PER/DIR
                 (UTC) (F)     (DEG/KT/KT) (MB)    (FT/S) (FT/S/D)
BUOY 41004       1410   76 74  180/  6/  8 1024.0
BUOY 41008       1350   74 73  130/  6/  6 1022.8R   4/ 6   3/140/ 6
FOLLY BEACH CMAN 1400   76     200/  5/  6 1024.7R
CAPERS NEARSHORE 1408   75 74  190/  2/  6 1024.0R
FRIPP NEARSHORE  1408   75 74  120/  4/  6 1023.5R


STATION/POSITION TIME  TEMP    WIND        PRES    WAVE   SWELL
                       AIR SEA DIR/SP/G            HT/PER HT/PER/DIR
                 (UTC) (F)     (DEG/KT/KT) (MB)    (FT/S) (FT/S/D)
5E ST. MARYS GA  1400      74                N/A     3/ 5
FRYING PAN BUOY  1410   75 73  180/ 10/ 12 1024.0
BUOY 41025       1350   77 76  220/ 17/ 19 1023.1F   4/ 5   2/140/ 7
CAPE LOOKOUT NC  1400   76     220/ 10/ 13 1023.6F
BUOY 41002       1350   74 76  160/  8/ 10 1025.9R   3/ 7   3/ 90/ 7
BUOY 41010       1410   78 79  120/ 14/ 17 1023.3
ST AUGUSTINE FL  1400   76 76  150/ 15/ 16 1023.1R


$$




USA.gov is the U.S. government's official web portal to all federal, state and local government web resources and services.